Hurricane Symbol View the latest observations near Atlantic Tropical Storm Alberto.

Station 46054 (LLNR 198.1) - WEST SANTA BARBARA 38 NM West of Santa Barbara, CA Image indicating link to RSS feed of recent meteorological observations for station 46054


Conditions at 46054 as of
(1:50 pm PDT)
2050 GMT on 06/19/2024:
     

Click on the graph icon in the table below to see a time series plot of the last five days of that observation.

5-day plot - Wind Direction Wind Direction (WDIR): NW ( 310 deg true )
5-day plot - Wind Speed Wind Speed (WSPD): 17.5 kts
5-day plot - Wind Gust Wind Gust (GST): 21.4 kts
5-day plot - Wave Height Wave Height (WVHT): 5.2 ft
5-day plot - Dominant Wave Period Dominant Wave Period (DPD): 8 sec
5-day plot - Average Wave Period Average Period (APD): 5.2 sec
5-day plot - Mean Wave Direction Mean Wave Direction (MWD): NW ( 308 deg true )
5-day plot - Atmospheric Pressure Atmospheric Pressure (PRES):29.88 in
5-day plot - Air Temperature Air Temperature (ATMP): 55.8 °F
5-day plot - Dew Point Dew Point (DEWP): 53.6 °F
5-day plot - Wind Speed at 10 Meters Wind Speed at 10 meters (WSPD10M): 19.4 kts
5-day plot - Wind Speed at 20 Meters Wind Speed at 20 meters (WSPD20M): 19.4 kts
5-day plot -  Wind Speed, Wind Gust and Atmospheric Pressure Combined plot of Wind Speed, Gust, and Air Pressure
Supplemental Measurements
Highest 1-minute Wind Speed
Time (PDT)5-day plot - 1-Minute Wind Speed WSPD 5-day plot - 1-Minute Wind Direction WDIR
1:41 pm 17.5 kts-
Previous observations
TIME
(PDT)
5-day plot - Wind Direction
WDIR
 
5-day plot - Wind Speed
WSPD
kts
5-day plot - Wind Gust
GST
kts
5-day plot - Wave Height
WVHT
ft
5-day plot - Dominant Wave Period
DPD
sec
5-day plot - Average Wave Period
APD
sec
5-day plot - Mean Wave Direction
MWD
 
5-day plot - Atmospheric Pressure
PRES
in
5-day plot - Pressure Tendency
PTDY
in
5-day plot - Air Temperature
ATMP
°F
5-day plot - Water Temperature
WTMP
°F
5-day plot - Dew Point
DEWP
°F
5-day plot - Salinity
SAL
psu
5-day plot - Visibility
VIS
nmi
5-day plot - Tide (above MLLW)
TIDE
ft
2024-06-19 01:40 pm NW 17.5 21.4----29.88- 55.6 58.3 53.4---
2024-06-19 01:30 pm NW 17.5 21.4----29.88- 55.6 58.3 53.4---
2024-06-19 01:20 pm NW 17.5 19.4 4.9 85.1WNW29.88- 55.4 58.3 53.2---
2024-06-19 01:10 pm NW 15.5 19.4----29.89- 55.4 58.1 53.2---
2024-06-19 01:00 pm NW 15.5 17.5----29.89+0.03 55.4 58.3 53.2---
2024-06-19 12:50 pm NW 15.5 19.4 4.9 75.1WNW29.89- 55.4 58.3 53.2---
2024-06-19 12:40 pm NW 15.5 19.4----29.89- 55.2 58.3 53.1---
2024-06-19 12:30 pm NW 15.5 19.4----29.89- 55.2 58.3 53.1---
2024-06-19 12:20 pm NW 17.5 19.4 4.9 85.2 NW29.89- 55.0 58.1 52.9---
2024-06-19 12:10 pm NW 17.5 21.4 4.9-5.2 NW29.89- 55.0 58.1 52.9---
2024-06-19 12:00 pm NW 17.5 21.4----29.88+0.03 55.0 57.9 52.9---
2024-06-19 11:50 am NW 17.5 19.4 5.2 85.3 NW29.88- 54.9 57.7 52.7---
2024-06-19 11:40 am NW 17.5 19.4----29.88- 54.7 57.6 52.5---
2024-06-19 11:30 am NW 15.5 21.4----29.88- 54.7 57.4 52.7---
2024-06-19 11:20 am NW 15.5 21.4 5.6 85.5 NW29.88- 54.5 57.2 52.5---
2024-06-19 11:10 am NW 17.5 21.4 5.6-5.5 NW29.88- 54.3 57.0 52.3---
2024-06-19 11:00 am NW 15.5 21.4----29.88+0.04 54.3 57.0 52.5---
2024-06-19 10:50 am NW 17.5 19.4 5.2 85.4 NW29.87- 54.1 57.0 52.3---
2024-06-19 10:40 am NW 17.5 19.4----29.87- 54.1 57.0 52.5---
2024-06-19 10:30 am NW 17.5 19.4----29.87- 54.0 57.0 52.3---
2024-06-19 10:20 am NW 17.5 19.4 5.2 85.6WNW29.87- 54.0 57.0 52.3---
2024-06-19 10:10 am NW 17.5 21.4 5.2-5.6WNW29.87- 54.0 57.2 52.3---
2024-06-19 10:00 am NW 15.5 19.4----29.86+0.04 54.0 57.4 52.3---
2024-06-19 09:50 am NW 15.5 17.5 5.2 85.6 NW29.86- 54.0 57.6 52.3---
2024-06-19 09:40 am NW 15.5 17.5 5.2-5.6 NW29.86- 54.0 57.6 52.3---
2024-06-19 09:30 am NW 15.5 19.4----29.86- 54.1 57.7 52.3---
2024-06-19 09:20 am NW 13.6 17.5 5.2 85.4 NW29.86- 54.3 57.7 52.3---
2024-06-19 09:10 am NW 13.6 17.5----29.85- 54.3 57.6 52.3---
2024-06-19 09:00 am NW 13.6 15.5----29.85+0.04 54.7 57.6 52.7---
2024-06-19 08:50 am NW 13.6 15.5 5.2 85.5 NW29.85- 54.5 57.6 52.3---
2024-06-19 08:40 amNNW 13.6 15.5----29.85- 54.5 57.6 52.3---
2024-06-19 08:30 amNNW 11.7 15.5----29.85- 54.7 57.4 52.5---
2024-06-19 08:20 am NW 11.7 15.5 5.6 75.4 NW29.85- 54.5 57.2 52.5---
2024-06-19 08:10 am NW 13.6 17.5 5.6-5.4 NW29.85- 54.3 57.0 52.3---
2024-06-19 08:00 am NW 15.5 17.5----29.84+0.04 54.3 56.7 52.3---
2024-06-19 07:50 amNNW 15.5 17.5 5.2 85.0 NW29.84- 54.1 56.3 52.3---
2024-06-19 07:40 amNNW 17.5 19.4----29.83- 53.8 56.1 52.2---
2024-06-19 07:30 am NW 17.5 21.4----29.83- 53.8 56.1 52.2---
2024-06-19 07:20 am NW 17.5 21.4 5.6 85.2 NW29.83- 53.8 56.1 52.2---
2024-06-19 07:10 am NW 19.4 25.3 5.6-5.2 NW29.83- 53.8 55.8 52.2---
2024-06-19 07:00 am NW 19.4 23.3----29.83+0.04 54.0 55.8 52.3---
2024-06-19 06:50 am NW 19.4 23.3 5.6 85.2 NW29.83- 53.8 55.6 52.2---
2024-06-19 06:40 am NW 19.4 23.3 5.6-5.2 NW29.82- 53.8 55.4 52.2---
2024-06-19 06:30 am NW 19.4 25.3----29.82- 53.6 55.4 52.0---
2024-06-19 06:20 am NW 19.4 23.3 5.9 85.1 NW29.82- 53.8 55.4 52.2---
2024-06-19 06:10 am NW 19.4 25.3 5.9-5.1 NW29.82- 53.6 55.6 52.0---
2024-06-19 06:00 am NW 21.4 25.3----29.81+0.02 53.6 55.6 52.0---
2024-06-19 05:50 am NW 19.4 25.3 5.6 75.2 NW29.81- 53.6 55.4 52.0---
2024-06-19 05:40 am NW 19.4 23.3----29.81- 53.8 55.2 52.2---
2024-06-19 05:30 am NW 19.4 23.3----29.80- 53.8 55.2 52.2---
2024-06-19 05:20 am NW 21.4 25.3 6.2 85.3 NW29.80- 53.8 55.2 52.0---
2024-06-19 05:10 am NW 21.4 25.3 6.2-5.3 NW29.80- 54.0 55.2 52.3---
2024-06-19 05:00 am NW 21.4 27.2----29.80+0.01 54.0 55.2 52.3---
2024-06-19 04:50 am NW 19.4 25.3 6.9 85.7 NW29.80- 54.0 55.4 52.2---
2024-06-19 04:40 am NW 19.4 23.3----29.80- 54.1 55.4 52.3---
2024-06-19 04:30 am NW 19.4 25.3----29.79- 54.1 55.4 52.3---
2024-06-19 04:20 am NW 21.4 27.2 6.6 85.5 NW29.80- 54.1 55.2 52.3---
2024-06-19 04:10 am NW 21.4 25.3 6.6-5.5 NW29.80- 54.1 55.4 52.2---
2024-06-19 04:00 am NW 21.4 27.2----29.80+0.01 54.0 55.2 52.0---
2024-06-19 03:50 am NW 19.4 25.3 6.9 85.5 NW29.79- 54.1 55.2 52.2---
2024-06-19 03:40 am NW 19.4 25.3----29.80- 54.1 55.2 52.2---
2024-06-19 03:30 am NW 19.4 23.3----29.80- 54.1 55.0 52.2---
2024-06-19 03:20 am NW 19.4 23.3 6.9 85.6 NW29.79- 54.1 54.9 52.2---
2024-06-19 03:10 am NW 19.4 23.3 6.9-5.6 NW29.79- 54.1 55.0 52.2---
2024-06-19 03:00 am NW 19.4 23.3----29.79+0.00 54.1 55.0 52.2---
2024-06-19 02:50 am NW 19.4 23.3 7.2 85.5 NW29.79- 54.3 55.0 52.2---
2024-06-19 02:40 am NW 21.4 25.3 7.2-5.5 NW29.78- 54.3 54.9 52.2---
2024-06-19 02:30 am NW 21.4 27.2----29.78- 54.3 54.7 52.2---
2024-06-19 02:20 am NW 21.4 27.2 7.5 85.8 NW29.78- 54.5 54.7 52.3---
2024-06-19 02:10 am NW 21.4 25.3 7.5-5.8 NW29.78- 54.5 54.7 52.3---
2024-06-19 02:00 am NW 19.4 27.2----29.79+0.01 54.5 54.7 52.0---
2024-06-19 01:50 am NW 19.4 25.3 7.5 85.5 NW29.78- 54.7 54.7 52.2---
2024-06-19 01:40 am NW 21.4 25.3----29.79- 54.7 54.7 52.2---
2024-06-19 01:30 am NW 21.4 25.3----29.78- 54.7 54.7 52.2---
2024-06-19 01:20 am NW 21.4 29.1 7.2 85.7 NW29.79- 54.9 54.7 52.0---
2024-06-19 01:10 am NW 21.4 29.1 7.2-5.7 NW29.79- 54.9 54.7 52.0---
2024-06-19 01:00 am NW 21.4 25.3----29.79+0.01 55.0 54.9 52.2---
2024-06-19 12:50 am NW 21.4 25.3 6.9 85.3 NW29.78- 55.0 54.9 52.0---
2024-06-19 12:40 am NW 19.4 25.3----29.79- 55.0 54.7 52.0---
2024-06-19 12:30 am NW 21.4 27.2----29.79- 55.0 54.7 52.0---
2024-06-19 12:20 am NW 21.4 27.2 7.5 95.6 NW29.79- 55.2 54.7 52.2---
2024-06-19 12:10 am NW 21.4 29.1----29.79- 55.2 54.5 52.0---
2024-06-19 12:00 am NW 21.4 27.2----29.79+0.02 55.4 54.7 52.2---
2024-06-18 11:50 pm NW 23.3 29.1 7.5 85.6 NW29.78- 55.4 54.7 52.0---
2024-06-18 11:40 pm NW 23.3 27.2----29.78- 55.6 54.9 52.2---
2024-06-18 11:30 pm NW 23.3 27.2----29.78- 55.8 55.0 52.3---
2024-06-18 11:20 pm NW 21.4 29.1 7.2 65.5 NW29.78- 55.8 55.2 52.3---
2024-06-18 11:10 pm NW 23.3 27.2 7.2-5.5 NW29.78- 55.8 55.4 52.3---
2024-06-18 11:00 pm NW 23.3 29.1----29.78+0.02 55.9 55.6 52.5---
2024-06-18 10:50 pm NW 23.3 29.1 7.2 85.5 NW29.78- 55.8 55.6 52.5---
2024-06-18 10:40 pm NW 23.3 29.1----29.78- 55.8 55.8 52.7---
2024-06-18 10:30 pm NW 23.3 29.1----29.78- 55.6 55.8 52.5---
2024-06-18 10:20 pm NW 21.4 27.2 7.2 85.7 NW29.78- 55.6 55.8 52.7---
2024-06-18 10:10 pm NW 23.3 27.2 7.2-5.7 NW29.78- 55.6 55.2 52.7---
2024-06-18 10:00 pm NW 23.3 27.2----29.78+0.04 55.6 54.5 52.7---
2024-06-18 09:50 pm NW 23.3 27.2 7.9 75.9 NW29.78- 55.6 54.5 52.5---
2024-06-18 09:40 pm NW 21.4 25.3----29.78- 55.6 54.7 52.5---
2024-06-18 09:30 pm NW 21.4 27.2----29.77- 55.6 54.7 52.5---
2024-06-18 09:20 pm NW 21.4 29.1 7.5 75.7 NW29.77- 55.6 54.9 52.5---
2024-06-18 09:10 pm NW 21.4 29.1 7.5-5.7 NW29.77- 55.6 54.9 52.5---
2024-06-18 09:00 pm NW 21.4 27.2----29.77+0.03 55.6 54.9 52.5---
2024-06-18 08:50 pm NW 21.4 27.2 7.5 85.7 NW29.76- 55.8 54.9 52.5---
2024-06-18 08:40 pm NW 19.4 25.3 7.5-5.7 NW29.76- 55.6 54.9 52.3---
2024-06-18 08:30 pm NW 19.4 27.2----29.76- 55.8 55.0 52.5---
2024-06-18 08:20 pm NW 21.4 27.2 7.2 65.3 NW29.75- 55.8 55.2 52.5---
2024-06-18 08:10 pm NW 21.4 27.2 7.2-5.3 NW29.75- 55.8 55.2 52.7---
2024-06-18 08:00 pm NW 21.4 25.3----29.75+0.01 55.8 55.4 52.7---
2024-06-18 07:50 pm NW 21.4 25.3 6.9 65.4 NW29.75- 55.6 55.6 52.7---
2024-06-18 07:40 pm NW 21.4 27.2----29.74- 55.6 55.6 52.7---
2024-06-18 07:30 pm NW 21.4 29.1----29.74- 55.6 55.8 52.7---
2024-06-18 07:20 pm NW 21.4 27.2 6.9 85.3 NW29.74- 55.8 55.9 52.9---
2024-06-18 07:10 pm NW 23.3 29.1----29.74- 55.8 55.9 52.9---
2024-06-18 07:00 pm NW 23.3 31.1----29.73-0.02 55.9 55.9 53.1---
2024-06-18 06:50 pm NW 23.3 31.1 6.2 85.1 NW29.73- 55.9 55.9 53.1---
2024-06-18 06:40 pm NW 21.4 29.1----29.72- 55.9 55.9 53.1---
2024-06-18 06:30 pm NW 21.4 27.2----29.73- 56.1 55.9 53.2---
2024-06-18 06:20 pm NW 21.4 27.2 6.9 95.4 NW29.73- 55.9 55.9 53.1---
2024-06-18 06:10 pm NW 21.4 25.3----29.73- 55.8 55.8 53.1---
2024-06-18 06:00 pm NW 21.4 27.2----29.73-0.03 55.8 55.8 53.2---
2024-06-18 05:50 pm NW 23.3 29.1 6.9 95.2 NW29.74- 55.6 55.8 53.1---
2024-06-18 05:40 pm NW 23.3 29.1----29.74- 55.6 55.8 53.1---
2024-06-18 05:30 pm NW 23.3 29.1----29.74- 55.6 55.8 53.4---
2024-06-18 05:20 pm NW 23.3 31.1 6.9 85.4 NW29.75- 55.6 55.8 53.4---
2024-06-18 05:10 pm NW 23.3 29.1 6.9-5.4 NW29.74- 55.6 55.8 53.4---
2024-06-18 05:00 pm NW 23.3 29.1----29.74-0.04 55.6 55.8 53.4---
2024-06-18 04:50 pm NW 23.3 31.1 6.9 95.3 NW29.74- 55.6 55.8 53.4---
2024-06-18 04:40 pm NW 23.3 29.1 6.9-5.3 NW29.74- 55.6 55.9 53.4---
2024-06-18 04:30 pm NW 23.3 27.2----29.75- 55.6 55.8 53.4---
2024-06-18 04:20 pm NW 21.4 27.2 7.2 85.6 NW29.74- 55.6 55.9 53.4---
2024-06-18 04:10 pm NW 21.4 25.3 7.2-5.6 NW29.75- 55.6 55.9 53.4---
2024-06-18 04:00 pm NW 21.4 27.2----29.75-0.03 55.6 56.1 53.4---
2024-06-18 03:50 pm NW 19.4 27.2 6.2 85.1 NW29.75- 55.8 56.1 53.6---
2024-06-18 03:40 pm NW 21.4 25.3----29.76- 55.8 56.1 53.4---
2024-06-18 03:30 pm NW 19.4 25.3----29.76- 55.8 55.9 53.4---
2024-06-18 03:20 pm NW 19.4 25.3 6.9 95.4WNW29.77- 55.8 55.9 53.2---
2024-06-18 03:10 pm NW 19.4 23.3----29.77- 55.8 55.9 53.2---
2024-06-18 03:00 pm NW 19.4 23.3----29.77-0.02 55.8 56.1 53.2---
2024-06-18 02:50 pm NW 21.4 25.3 7.2 95.6 NW29.77- 55.8 56.1 53.2---
2024-06-18 02:40 pm NW 21.4 25.3----29.77- 55.8 56.3 53.2---
2024-06-18 02:30 pm NW 21.4 25.3----29.77- 55.8 56.3 53.2---
2024-06-18 02:20 pm NW 19.4 25.3 6.6 85.6 NW29.77- 55.6 56.3 53.2---
2024-06-18 02:10 pm NW 19.4 23.3----29.77- 55.6 56.3 53.4---
2024-06-18 02:00 pm NW 19.4 25.3----29.77-0.01 55.6 56.3 53.4---
2024-06-18 01:50 pm NW 21.4 25.3 6.9 85.6 NW29.78- 55.6 56.3 53.4---

Detailed Wave Summary
for 46054 as of (1:40 pm PDT)
2040 GMT on 06/19/2024:

These wave data are displayed in rounded times.

     

Click on the graph icon in the table below to see a time series plot of the last five days of that observation.

5-day plot - Significant Wave Height Significant Wave Height (WVHT): 5.2 ft
5-day plot - Swell Height Swell Height (SwH): 3.0 ft
5-day plot - Swell Period Swell Period (SwP): 7.7 sec
5-day plot - Swell Direction Swell Direction (SwD): NW
5-day plot - Wind Wave Height Wind Wave Height (WWH): 4.3 ft
5-day plot - Wind Wave Period Wind Wave Period (WWP): 5.3 sec
5-day plot - Wind Wave Direction Wind Wave Direction (WWD):WNW
5-day plot - Wave Steepness Wave Steepness (STEEPNESS): AVERAGE
5-day plot - Average Wave Period Average Wave Period (APD): 5.2 sec
Previous observations
TIME
(PDT)
5-day plot - Wave Height
WVHT
ft
5-day plot - Swell Height
SwH
ft
5-day plot - Swell Period
SwP
sec
5-day plot - Swell Direction
SwD
 
5-day plot - Wind Wave Height
WWH
ft
5-day plot - Wind Wave Period
WWP
sec
5-day plot - Wind Wave Direction
WWD
 
5-day plot - Wave Steepness
STEEPNESS
 
5-day plot - Average Wave Period
APD
sec
2024-06-19 01:10 pm 4.9 3.3 7.7WNW 3.9 6.7 WNW AVERAGE 5.1
2024-06-19 12:40 pm 4.9 3.3 7.1WNW 3.6 6.2 WNW STEEP 5.1
2024-06-19 12:10 pm 4.9 3.6 8.3 NW 3.3 5.3 WNW AVERAGE 5.2
2024-06-19 11:40 am 5.2 3.9 7.7 NW 3.6 5.9 WNW AVERAGE 5.3
2024-06-19 11:10 am 5.6 3.9 8.3 NW 3.6 5.9 WNW AVERAGE 5.5
2024-06-19 10:40 am 5.2 3.9 7.7 NW 3.3 5.9 WNW AVERAGE 5.4
2024-06-19 10:10 am 5.2 4.3 7.7WNW 3.3 5.9 WNW AVERAGE 5.6
2024-06-19 09:40 am 5.2 3.6 8.3 NW 3.6 6.7 WNW AVERAGE 5.6
2024-06-19 09:10 am 5.2 3.9 8.3 NW 3.3 5.6 WNW AVERAGE 5.4
2024-06-19 08:40 am 5.2 3.9 8.3 NW 3.3 5.6 WNW AVERAGE 5.5
2024-06-19 08:10 am 5.6 3.9 7.1 NW 3.9 5.0 WNW STEEP 5.4
2024-06-19 07:40 am 5.2 3.9 8.3 NW 3.6 5.9 WNW AVERAGE 5.0
2024-06-19 07:10 am 5.6 4.3 7.7 NW 3.6 5.3 NW STEEP 5.2
2024-06-19 06:40 am 5.6 3.6 8.3 NW 3.9 5.6 NW AVERAGE 5.2
2024-06-19 06:10 am 5.9 3.6 8.3 NW 4.6 5.3 WNW AVERAGE 5.1
2024-06-19 05:40 am 5.6 3.9 7.1 NW 3.9 4.8 NW STEEP 5.2
2024-06-19 05:10 am 6.2 3.6 7.7 NW 4.9 6.7 NW STEEP 5.3
2024-06-19 04:40 am 6.9 5.2 7.7 NW 4.3 5.9 WNW STEEP 5.7
2024-06-19 04:10 am 6.6 4.6 8.3 NW 4.6 6.2 NW AVERAGE 5.5
2024-06-19 03:40 am 6.9 3.6 14.8WSW 5.9 7.7 NW STEEP 5.5
2024-06-19 03:10 am 6.9 4.9 8.3 NW 4.9 6.2 WNW AVERAGE 5.6
2024-06-19 02:40 am 7.2 4.9 7.7 NW 5.2 6.7 NW STEEP 5.5
2024-06-19 02:10 am 7.5 5.2 8.3 NW 5.6 6.7 NW STEEP 5.8
2024-06-19 01:40 am 7.5 3.9 8.3 NW 6.6 5.9 NW STEEP 5.5
2024-06-19 01:10 am 7.2 3.9 14.8SSW 6.2 7.7 NW STEEP 5.7
2024-06-19 12:40 am 6.9 3.6 8.3 NW 5.9 5.9 NW AVERAGE 5.3
2024-06-19 12:10 am 7.5 3.0 9.1 NW 6.9 5.9 NW AVERAGE 5.6
2024-06-18 11:40 pm 7.5 3.0 14.8SSE 6.6 8.3 NW STEEP 5.6
2024-06-18 11:10 pm 7.2 3.6 13.8WSW 6.2 6.2 NWVERY_STEEP 5.5
2024-06-18 10:40 pm 7.2 3.9 8.3 NW 6.2 6.7 NW STEEP 5.5
2024-06-18 10:10 pm 7.2 4.6 8.3 NW 5.6 6.2 NW STEEP 5.7
2024-06-18 09:40 pm 7.9 3.6 9.1 NW 6.9 7.1 NW STEEP 5.9
2024-06-18 09:10 pm 7.5 3.0 14.8 SW 6.9 6.7 NWVERY_STEEP 5.7
2024-06-18 08:40 pm 7.5 3.6 14.8 SW 6.9 8.3 NW STEEP 5.7
2024-06-18 08:10 pm 7.2 2.6 14.8WSW 6.6 5.9 NWVERY_STEEP 5.3
2024-06-18 07:40 pm 6.9 3.0 10.0 NW 6.2 6.2 NWVERY_STEEP 5.4
2024-06-18 07:10 pm 6.9 3.6 8.3 NW 5.9 5.6 NW AVERAGE 5.3
2024-06-18 06:40 pm 6.2 3.6 7.7 NW 5.2 5.9 WNW STEEP 5.1
2024-06-18 06:10 pm 6.9 4.6 9.1 NW 5.2 5.0 NW AVERAGE 5.4
2024-06-18 05:40 pm 6.9 4.6 9.1 NW 5.2 5.9 WNW AVERAGE 5.2
2024-06-18 05:10 pm 6.9 4.6 8.3 NW 5.2 5.6 WNW AVERAGE 5.4
2024-06-18 04:40 pm 6.9 5.2 9.1 NW 4.9 4.2 NW AVERAGE 5.3
2024-06-18 04:10 pm 7.2 4.6 8.3 NW 5.2 4.8 WNW STEEP 5.6
2024-06-18 03:40 pm 6.2 3.9 8.3 NW 4.6 6.2 NW AVERAGE 5.1
2024-06-18 03:10 pm 6.9 4.6 9.1WNW 5.2 6.7 WNW AVERAGE 5.4
2024-06-18 02:40 pm 7.2 4.9 9.1 NW 5.2 5.9 WNW AVERAGE 5.6
2024-06-18 02:10 pm 6.6 4.6 8.3 NW 4.9 6.7 WNW AVERAGE 5.6

Plot of wave energy versus frequency (and period)